Satellite: RESURS Catalog number: 25394 Epoch time: 09182.98413336 Element set: 642 Inclination: 098.3363 deg RA of node: 214.5772 deg Eccentricity: 0.0001735 Arg of perigee: 135.9333 deg Mean anomaly: 224.1992 deg Mean motion: 14.24184973 rev/day Decay rate: -1.5e-07 rev/day^2 Epoch rev: 57050 Checksum: 301
Satellite: FENGYUN1 Catalog number: 25730 Epoch time: 09182.92212700 Element set: 8168 Inclination: 098.7547 deg RA of node: 152.6464 deg Eccentricity: 0.0020095 Arg of perigee: 171.2505 deg Mean anomaly: 188.9019 deg Mean motion: 14.07904849 rev/day Decay rate: -3.88e-06 rev/day^2 Epoch rev: 52239 Checksum: 321
Satellite: OKEAN-0 Catalog number: 25860 Epoch time: 09182.49911617 Element set: 07 Inclination: 097.7865 deg RA of node: 163.1105 deg Eccentricity: 0.0001699 Arg of perigee: 096.2353 deg Mean anomaly: 263.9046 deg Mean motion: 14.73578381 rev/day Decay rate: .4. e-07 rev/day^2 Epoch rev: 53525 Checksum: 310
Satellite: NOAA-16 Catalog number: 26536 Epoch time: 09182.81340068 Element set: 4668 Inclination: 099.1760 deg RA of node: 186.8334 deg Eccentricity: 0.0009647 Arg of perigee: 236.7347 deg Mean anomaly: 123.2884 deg Mean motion: 14.12522834 rev/day Decay rate: -2.04e-06 rev/day^2 Epoch rev: 45236 Checksum: 323
Satellite: NOAA-17 Catalog number: 27453 Epoch time: 09182.82568294 Element set: 09 Inclination: 098.4828 deg RA of node: 241.3916 deg Eccentricity: 0.0012885 Arg of perigee: 082.8032 deg Mean anomaly: 277.4580 deg Mean motion: 14.24074129 rev/day Decay rate: .1.43 e-05 rev/day^2 Epoch rev: 36483 Checksum: 322
Satellite: NOAA-18 Catalog number: 28654 Epoch time: 09182.79382125 Element set: 9593 Inclination: 098.9063 deg RA of node: 125.9201 deg Eccentricity: 0.0013737 Arg of perigee: 325.8357 deg Mean anomaly: 034.1935 deg Mean motion: 14.11267051 rev/day Decay rate: -9.7e-07 rev/day^2 Epoch rev: 21201 Checksum: 313
Satellite: NOAA-19 Catalog number: 33591 Epoch time: 09182.84790527 Element set: 27 Inclination: 098.7451 deg RA of node: 128.2272 deg Eccentricity: 0.0013789 Arg of perigee: 197.6784 deg Mean anomaly: 162.3931 deg Mean motion: 14.10966984 rev/day Decay rate: .1.5 e-06 rev/day^2 Epoch rev: 02050 Checksum: 326
/EX SB KEPS @ AMSAT $ORB09183.M Orbital Elements 09183.MISC
HR AMSAT ORBITAL ELEMENTS FOR MANNED AND MISCELLANEOUS SATELLITES FROM WA5QGD FORT WORTH,TX July 2, 2009 Send Subscribe/unsubscribe to KEPS at http://www.amsat.org/mailman/listinfo/keps BID: ORB09183.M TO ALL RADIO AMATEURS BT
Satellite: HUBBLE Catalog number: 20580 Epoch time: 09182.21105557 Element set: 45 Inclination: 028.4715 deg RA of node: 010.7573 deg Eccentricity: 0.0003745 Arg of perigee: 065.8123 deg Mean anomaly: 294.2958 deg Mean motion: 15.00816593 rev/day Decay rate: .1.468 e-04 rev/day^2 Epoch rev: 85196 Checksum: 296
Satellite: ISS Catalog number: 25544 Epoch time: 09182.83210648 Element set: 1398 Inclination: 051.6394 deg RA of node: 231.7114 deg Eccentricity: 0.0007698 Arg of perigee: 173.9945 deg Mean anomaly: 162.7813 deg Mean motion: 15.74119689 rev/day Decay rate: -1.2261e-04 rev/day^2 Epoch rev: 60825 Checksum: 328
Satellite: CO-58 Catalog number: 28895 Epoch time: 09181.70427705 Element set: 386 Inclination: 098.0569 deg RA of node: 071.9423 deg Eccentricity: 0.0017055 Arg of perigee: 308.6022 deg Mean anomaly: 051.3672 deg Mean motion: 14.59777704 rev/day Decay rate: -4.6e-07 rev/day^2 Epoch rev: 19570 Checksum: 334
Satellite: FALCON Catalog number: 30776 Epoch time: 09183.83951176 Element set: 604 Inclination: 035.4346 deg RA of node: 004.4431 deg Eccentricity: 0.0001496 Arg of perigee: 006.0267 deg Mean anomaly: 354.0467 deg Mean motion: 15.03263538 rev/day Decay rate: 2.12e-06 rev/day^2 Epoch rev: 12745 Checksum: 274
Satellite: MAST Catalog number: 31126 Epoch time: 09182.69739649 Element set: 629 Inclination: 097.9871 deg RA of node: 236.8385 deg Eccentricity: 0.0093719 Arg of perigee: 234.5531 deg Mean anomaly: 124.6911 deg Mean motion: 14.53503467 rev/day Decay rate: -4.1e-07 rev/day^2 Epoch rev: 11714 Checksum: 323
Satellite: CAPE1 Catalog number: 31130 Epoch time: 09183.85308816 Element set: 638 Inclination: 097.9895 deg RA of node: 236.0895 deg Eccentricity: 0.0101727 Arg of perigee: 236.2457 deg Mean anomaly: 122.9001 deg Mean motion: 14.52068853 rev/day Decay rate: 1.02e-06 rev/day^2 Epoch rev: 11696 Checksum: 305
Satellite: COMPASS Catalog number: 32787 Epoch time: 09183.83750027 Element set: 398 Inclination: 097.9421 deg RA of node: 247.5295 deg Eccentricity: 0.0015464 Arg of perigee: 346.1395 deg Mean anomaly: 013.9386 deg Mean motion: 14.81621145 rev/day Decay rate: 1.43e-06 rev/day^2 Epoch rev: 6376 Checksum: 319
Satellite: AAUSAT2 Catalog number: 32788 Epoch time: 09182.72361495 Element set: 015 Inclination: 097.9399 deg RA of node: 246.4851 deg Eccentricity: 0.0015352 Arg of perigee: 351.3245 deg Mean anomaly: 008.7693 deg Mean motion: 14.81742629 rev/day Decay rate: -3.5e-07 rev/day^2 Epoch rev: 06360 Checksum: 319
Satellite: DO-64 Catalog number: 32789 Epoch time: 09183.75833362 Element set: 409 Inclination: 097.9469 deg RA of node: 247.6843 deg Eccentricity: 0.0015595 Arg of perigee: 345.9034 deg Mean anomaly: 014.1740 deg Mean motion: 14.81735569 rev/day Decay rate: 5.34e-06 rev/day^2 Epoch rev: 6375 Checksum: 350
Satellite: CO-66 Catalog number: 32791 Epoch time: 09183.20671491 Element set: 391 Inclination: 097.9443 deg RA of node: 246.9380 deg Eccentricity: 0.0016209 Arg of perigee: 346.5680 deg Mean anomaly: 013.5093 deg Mean motion: 14.81449014 rev/day Decay rate: 2.85e-06 rev/day^2 Epoch rev: 6363 Checksum: 316
Satellite: RS-30 Catalog number: 32953 Epoch time: 09183.72430702 Element set: 3447 Inclination: 082.5008 deg RA of node: 246.9504 deg Eccentricity: 0.0020136 Arg of perigee: 141.8948 deg Mean anomaly: 218.3568 deg Mean motion: 12.43002084 rev/day Decay rate: 1.0e-07 rev/day^2 Epoch rev: 5032 Checksum: 268
Satellite: TACSAT-3 Catalog number: 35001 Epoch time: 09182.94252033 Element set: 39 Inclination: 040.4542 deg RA of node: 152.4144 deg Eccentricity: 0.0025955 Arg of perigee: 273.0360 deg Mean anomaly: 086.7486 deg Mean motion: 15.38875619 rev/day Decay rate: .1.440 e-04 rev/day^2 Epoch rev: 00662 Checksum: 282
Satellite: PHARMSAT Catalog number: 35002 Epoch time: 09182.98577738 Element set: 67 Inclination: 040.4672 deg RA of node: 151.8923 deg Eccentricity: 0.0028645 Arg of perigee: 277.3848 deg Mean anomaly: 082.3717 deg Mean motion: 15.39646906 rev/day Decay rate: .1.470 e-04 rev/day^2 Epoch rev: 00662 Checksum: 323
Satellite: HAWKSAT1 Catalog number: 35003 Epoch time: 09183.82151972 Element set: 41 Inclination: 040.4694 deg RA of node: 146.7958 deg Eccentricity: 0.0029696 Arg of perigee: 284.9339 deg Mean anomaly: 074.8193 deg Mean motion: 15.39899600 rev/day Decay rate: 1.113e-05 rev/day^2 Epoch rev: 676 Checksum: 325
Satellite: CP6 Catalog number: 35004 Epoch time: 09182.97403704 Element set: 38 Inclination: 040.4585 deg RA of node: 151.7652 deg Eccentricity: 0.0029251 Arg of perigee: 280.8623 deg Mean anomaly: 078.9027 deg Mean motion: 15.40127158 rev/day Decay rate: .3.168 e-04 rev/day^2 Epoch rev: 00662 Checksum: 290
Satellite: AEROCUB3 Catalog number: 35005 Epoch time: 09183.88716973 Element set: 35 Inclination: 040.4736 deg RA of node: 146.4326 deg Eccentricity: 0.0029254 Arg of perigee: 283.9219 deg Mean anomaly: 075.8343 deg Mean motion: 15.39957063 rev/day Decay rate: 3.398e-05 rev/day^2 Epoch rev: 676 Checksum: 328
/EX